weather.gov     
National Weather Service

Terminal Aerodrome Forecast
NWS Homepage
This page is being discontinued on March 12, 2014.
The same data is available at this site. Please update your bookmarks.
Thank you, and we apologize for the inconvenience.
Please send an email to SR-SRH.Webmaster@noaa.gov with any concerns.


Current Version
Previous Version:    01  02  03  04  05  06  07  08  09  10  11  12  13  14  15  16  17  18  19  20  21  22  23  24  25  26  27  28  29  30  
   31  
[Printable]
473
FTUS44 KMRX 272327
TAFTYS
TAF
KTYS 272327Z 2800/2824 29009KT P6SM OVC035
     FM280900 34005KT P6SM BKN030
     FM281400 VRB04KT P6SM SCT050=




473
FTUS44 KMRX 272327
TAFTYS
TAF
KTYS 272327Z 2800/2824 29009KT P6SM OVC035
     FM280900 34005KT P6SM BKN030
     FM281400 VRB04KT P6SM SCT050=


U.S. Dept. of Commerce
NOAA National Weather Service
1325 East West Highway
Silver Spring, MD 20910
E-mail: w-nws.webmaster@noaa.gov
Page last modified: May 16, 2007
NATIONAL WEATHER SERVICE: for Safety, for Work, for Fun - FOR LIFE